Flag for Portugal

Past Weather in Lisbon, Portugal — Yesterday and Last 2 Weeks

Now
82 °F

Passing clouds.


Feels Like: 81 °F
Forecast: 75 / 62 °F
Wind: 5 mph from East

Location: Lisbon Portela Airport
Current Time: Sep 29, 2020 at 4:33:20 pm
Latest Report: Sep 29, 2020 at 3:30 pm
Visibility: N/A
Pressure29.98 "Hg
Humidity: 35%
Dew Point: 52 °F
Location of LisbonLocation

Past Weather in Lisbon — Graph

°F

Lisbon Temperature Yesterday

Maximum temperature yesterday: 81 °F (at 4:00 pm)
Minimum temperature yesterday: 59 °F (at 4:00 am)
Average temperature yesterday: 66 °F

High & Low Weather Summary for the Past Weeks

 TemperatureHumidityPressure
High82 °F (Sep 29, 3:00 pm)100% (Sep 16, 4:30 am)30.33 "Hg (Sep 16, 4:30 am)
Low57 °F (Sep 26, 7:00 am)35% (Sep 29, 3:00 pm)29.65 "Hg (Sep 18, 2:00 pm)
Average68 °F79%30.04 "Hg
* Reported Sep 14 3:00 pm — Sep 29 3:00 pm, Lisbon. Weather by CustomWeather, © 2020

Note: Actual official high and low records may vary slightly from our data, if they occured in-between our weather recording intervals... More about our weather records

Lisbon Weather History for the Previous 24 Hours

Scroll right to see more
 ConditionsComfort  
Time TempWeatherWind HumidityBarometerVisibility
3:00 pm
Tue, Sep 29
82 °FPassing clouds.7 mph35%29.98 "HgN/A
2:30 pm81 °FSunny.6 mph39%30.01 "Hg10 mi
2:00 pm81 °FPassing clouds.6 mph42%30.01 "HgN/A
1:30 pm81 °FSunny.6 mph45%30.01 "Hg10 mi
1:00 pm79 °FSunny.5 mph48%30.04 "Hg10 mi
12:30 pm77 °FPassing clouds.5 mph51%30.04 "HgN/A
12:00 pm75 °FPassing clouds.6 mph54%30.04 "HgN/A
11:30 am73 °FPassing clouds.5 mph61%30.04 "HgN/A
11:00 am73 °FPassing clouds.5 mph61%30.04 "HgN/A
10:30 am70 °FPassing clouds.6 mph60%30.04 "HgN/A
10:00 am68 °FPassing clouds.5 mph64%30.04 "HgN/A
9:30 am66 °FPassing clouds.7 mph68%30.04 "HgN/A
9:00 am64 °FPassing clouds.9 mph73%30.04 "HgN/A
8:30 am63 °FPassing clouds.8 mph73%30.01 "HgN/A
8:00 am61 °FPassing clouds.9 mph77%30.01 "HgN/A
7:30 am61 °FPassing clouds.9 mph77%30.01 "HgN/A
7:00 am61 °FClear.9 mph77%30.01 "Hg10 mi
6:30 am61 °FClear.10 mph77%30.01 "Hg10 mi
6:00 am61 °FClear.10 mph77%30.01 "Hg10 mi
5:30 am63 °FClear.10 mph73%30.01 "Hg10 mi
5:00 am63 °FClear.12 mph73%30.01 "Hg10 mi
4:30 am63 °FClear.10 mph77%30.01 "Hg10 mi
4:00 am63 °FClear.10 mph77%30.01 "Hg10 mi
3:30 am61 °FClear.13 mph83%30.01 "Hg10 mi
3:00 am61 °FClear.9 mph83%30.01 "Hg10 mi
2:30 am61 °FClear.9 mph83%30.01 "Hg10 mi
1:30 am63 °FClear.8 mph77%30.01 "Hg10 mi
1:00 am63 °FClear.9 mph77%30.01 "Hg10 mi
12:30 am64 °FPassing clouds.5 mph68%30.01 "HgN/A
12:00 am64 °FClear.3 mph68%30.01 "Hg10 mi
11:30 pm
Mon, Sep 28
64 °FClear.7 mph64%30.01 "Hg10 mi
11:00 pm64 °FClear.8 mph64%30.01 "Hg10 mi
10:30 pm63 °FPassing clouds.7 mph64%30.01 "HgN/A
10:00 pm64 °FClear.10 mph60%30.01 "Hg10 mi
9:30 pm66 °FClear.13 mph56%30.01 "Hg10 mi
9:00 pm66 °FClear.13 mph56%30.01 "Hg10 mi
8:30 pm66 °FClear.14 mph60%30.01 "Hg10 mi
8:00 pm66 °FClear.14 mph64%30.01 "Hg10 mi
7:30 pm66 °FClear.14 mph68%30.01 "Hg10 mi
7:00 pm66 °FSunny.15 mph68%30.01 "Hg10 mi
6:30 pm70 °FSunny.15 mph64%30.01 "Hg10 mi
6:00 pm72 °FSunny.12 mph61%29.98 "Hg10 mi
5:30 pm73 °FPassing clouds.13 mph57%29.98 "HgN/A
5:00 pm73 °FSunny.10 mph61%29.98 "Hg10 mi
4:30 pm75 °FPassing clouds.10 mph57%29.98 "HgN/A
4:00 pm81 °FSunny.3 mph37%29.98 "Hg10 mi
Weather by CustomWeather, © 2020

See weather overview